Skip Page Navigation
NASA JPL Caltech
NASA Logo - Jet Propulsion Laboratory + View the NASA Portal
+ Center for Near-Earth Object Studies
JPL Home Earth Solar System Stars & Galaxies Technology
JPL Solar System Dynamics
BODIES ORBITS EPHEMERIDES TOOLS PHYSICAL DATA DISCOVERY FAQ SITE MAP
IMPORTANT: The SSD Announcement email list is now available. Major changes are coming in the near future, including possible hostname and/or URL changes. To be notified of such changes, subscribe to this email list.

Please visit this page for more details.


JPL Small-Body Database Browser
Search: [ help ]  
34418 (2000 SO3)
Classification: Main-belt Asteroid          SPK-ID: 2034418
Ephemeris | Orbit Diagram | Orbital Elements | Mission Design | Physical Parameters | Discovery Circumstances ]

[ show orbit diagram ]
Orbital Elements at Epoch 2459000.5 (2020-May-31.0) TDB
Reference: JPL 24 (heliocentric ecliptic J2000)
 Element Value Uncertainty (1-sigma)   Units 
e .1678655977020665 3.6887e-08  
a 2.271684519446777 7.4598e-09 au
q 1.890346839799312 8.4821e-08 au
i 7.409256743896943 3.527e-06 deg
node 75.76923495690579 3.0839e-05 deg
peri 287.9700452324651 3.2413e-05 deg
M 263.6691683984578 1.0997e-05 deg
tp 2459335.144169988348
(2021-Apr-30.64416999)
3.8833e-05 TDB
period 1250.605846465846
3.42
6.1602e-06
1.687e-08
d
yr
n .2878604805961393 1.4179e-09 deg/d
Q 2.653022199094242 8.7121e-09 au
  Orbit Determination Parameters
   # obs. used (total)      1614  
   data-arc span      13325 days (36.48 yr)  
   first obs. used      1983-11-04  
   last obs. used      2020-04-28  
   planetary ephem.      DE431  
   SB-pert. ephem.      SB431-N16  
   condition code      0  
   norm. resid. RMS      .49414  
   source      ORB  
   producer      Otto Matic  
   solution date      2020-May-20 07:48:10  

Additional Information
 Earth MOID = .904449 au 
 Jupiter MOID = 2.83079 au 
 T_jup = 3.582 
[ show covariance matrix ]

Ephemeris | Orbit Diagram | Orbital Elements | Mission Design | Physical Parameters | Discovery Circumstances ]

Physical Parameter Table
Parameter Symbol Value Units Sigma Reference Notes
absolute magnitude H 14.9   n/a MPO333127  
diameter diameter 2.476 km 0.479 urn:nasa:pds:neowise_diameters_albedos::2.0[mainbelt] (http://adsabs.harvard.edu/abs/2011ApJ...741...68M)  
geometric albedo albedo 0.501   0.090 urn:nasa:pds:neowise_diameters_albedos::2.0[mainbelt] (http://adsabs.harvard.edu/abs/2011ApJ...741...68M)  

34418 (2000 SO3)          Discovered 2000-Sep-20 by LINEAR at Socorro
Reference: 20020128/Numbers.arcLast Updated: 2004-04-19

Alternate Designations
 2000 SO3 = 2000 SW353 
Ephemeris | Orbit Diagram | Orbital Elements | Mission Design | Physical Parameters | Discovery Circumstances ]
ABOUT SSD CREDITS/AWARDS PRIVACY/COPYRIGHT GLOSSARY LINKS
FirstGov 2020-Jun-01 03:09 UT
(server date/time)  
NASA Home Page
Site Manager:   Ryan S. Park
Webmaster  Alan B. Chamberlin